Showing default

NINGXIA-1 4, 44782

Orbit data source: Space-Track

NINGXIA-1 4, 44782 is a Chinese payload satellite in LEO that was launched on Wed, 13 Nov 2019 UTC via a CHANG ZHENG 6 launch vehicle from the Taiyaun Space Center, China (TSC). Payload-class satellites include a variety of spacecraft equipped with specific instruments for various scientific and technological missions. These include communications satellites like Starlink; space stations such as the ISS; scientific satellites like the Hubble; Earth observation satellites from companies like Planet Labs, Umbra, and HawkEye 360; GPS; miniature CubeSats for education and research; and military/defense satellites.

Loading next visibility...
Identifier
44782, 2019-076D
Orbit
LEO
Country
Flag of CNCN / PRC
Related business
Manufacturer
DFH
Mission
Operational Commercial Sigint
Bus & Motor
NX-1, Unknown motor
Mass
~100 kg wet, ~100 kg dry
Launch date (UTC)
2019-11-13 (6 years ago)
Launch vehicle
CHANG ZHENG 6
Launch site
Taiyaun Space Center, China (TSC)
Object type
Payload
Rocket body
Debris
Shape & HBR
Box + 2 Pan, Unknown HBR
Radar Cross Section
0.166 m², Medium (>0.1 m² and < 1m²)

Expand to show TLE details & history
Last TLE update: 14 hours ago

TLE from 14 hours ago
0 NINGXIA-1 4
1 44782U 19076D   25350.00333770 -.00000066  00000-0  41579-4 0  9999
2 44782  45.0087 278.4042 0013758 334.6669  25.3489 14.01995932312111
Epoch: 2025-12-16T00:04Z
TLE epoch observation values (Epoch: 2025-12-16T00:04:48.377Z)
Latitude
-0.00004°
Longitude
-167.6912°
Altitude
877.862 km
Speed
7.419 km/s
True Right ascension
18h 33m 36s
True Declination
0° 00' 00"
Sunlit
Object was in daylight at epoch
Visualization orbit readout
Latitude
Unknown
Longitude
Unknown
Altitude
Unknown
Speed
Unknown
Apparent Right ascension
Unknown
Apparent Declination
Unknown
Sunlit
N/A
Visualization observer readout
Local Sidereal Time
13:10:16
Azimuth
Unknown
Elevation
Unknown
Doppler factor
Unknown
Orbital elements
Apogee altitude
898.408 km
Perigee altitude
878.413 km
Semi-major axis
7,266.548 km
Eccentricity
0.00138
Inclination
45.0087°
RAAN
278.4042°
Arg. of periapsis
334.6669°
True anomaly
25.4165°
Mean anomaly
25.3489°
Eccentric anomaly
25.38269°
Mean motion
3.50389 °/min
Orbital period
102.74 mins
BSTAR
0.000041579
Loading maneuver chart data...
Computing Atmospheric mass density...
Loading historical data...
Loading historical data...
Loading historical data...
Loading historical data...
Loading historical data...
Loading historical data...
Loading historical data...
Other satellites on launch #76 in the year 2019 (2019-11-13 UTC)

Documentation

Showing up to 5 results
|